Location: Caltech
(34.1382°N, 118.1253°W)
Time: 15:09:47
(UTC-07:00)

Cosmos 2219 - Visible Passes

Search period start: 23 March 2017 00:00
Search period end: 02 April 2017 00:00
Orbit: 834 x 860 km, 71.1° (Epoch: 22 March)

Date Brightness Start Highest point End Pass type
(mag) Time Alt. Az. Time Alt. Az. Time Alt. Az.
29 Mar 5.9 23:04:39 10° N 23:05:03 12° N 23:05:03 12° N visible
30 Mar 5.7 22:51:13 10° N 22:52:03 14° N 22:52:03 14° N visible
31 Mar 5.5 22:37:46 10° N 22:39:05 17° N 22:39:05 17° N visible
01 Apr 5.2 22:24:20 10° N 22:26:08 20° N 22:26:08 20° N visible
